[[{"header":{"parameterUnit":"m.s-1","parameterCategory":1,"la1":30.2992,"la2":30.254,"lo1":-89.0895,"lo2":-89.0443,"dy":0.0025,"dx":0.0025,"nx":19,"ny":19,"refTime":"2026-04-03T21:00:00:Z","depth":0,"parameterNumber":2,"parameterNumberName":"U-component_of_WINDS"},"data":[0,0,0,-5.1773,-5.1774,-5.1833,-5.1833,-5.192,-5.192,0,0,0,0,0,0,0,0,0,0,0,-5.1762,-5.1763,-5.1773,-5.1774,-5.1833,-5.1833,-5.1919,-5.192,0,0,0,0,0,0,0,0,0,0,0,-5.1762,-5.1763,-5.1764,-5.1775,-5.1833,-5.1833,-5.1919,-5.1871,0,0,0,0,0,0,0,0,0,0,-5.1812,-5.1808,-5.1763,-5.1764,-5.1775,-5.1833,-5.1833,-5.1868,-5.1874,-5.1898,0,-5.1921,0,-5.1922,-5.1927,-5.1927,0,0,0,-5.1769,-5.1804,-5.1814,-5.1764,-5.1776,-5.1833,-5.1805,-5.1871,-5.1878,-5.1906,-5.1922,-5.1925,-5.1924,-5.1928,-5.1928,-5.2085,-5.2086,0,0,-5.1766,-5.1776,-5.181,-5.1818,-5.181,-5.1803,-5.1807,-5.1875,-5.1893,-5.1922,-5.1927,-5.1925,-5.1928,-5.1929,-5.2084,-5.2085,0,0,0,-5.176,-5.1774,-5.1782,-5.1815,-5.1825,-5.1805,-5.1809,-5.189,-5.1892,-5.1928,-5.1926,-5.1929,-5.193,-5.2083,-5.2085,-5.2141,0,0,0,-5.1758,-5.177,-5.1781,-5.1787,-5.1824,-5.1858,-5.1823,-5.1888,-5.1895,-5.1926,-5.1929,-5.1931,-5.2082,-5.2084,-5.2137,-5.2164,0,0,0,-5.1756,-5.177,-5.1781,-5.1788,-5.1813,-5.1857,-5.1862,-5.1889,-5.1895,-5.1927,-5.1931,-5.2081,-5.2084,-5.2133,-5.2159,-5.2208,0,0,0,-5.1756,-5.1829,-5.1782,-5.1864,-5.1813,-5.1892,-5.1862,-5.192,-5.1956,-5.1929,-5.2082,-5.2085,-5.2132,-5.2155,-5.2204,-5.2248,-5.2268,0,0,-5.1854,-5.1841,-5.1889,-5.1848,-5.1938,-5.1883,-5.1981,-5.2004,-5.1998,-5.2057,-5.2061,-5.2138,-5.2158,-5.2207,-5.2384,-5.24,0,0,0,-5.1923,-5.1957,-5.1979,-5.2013,-5.2034,-5.2054,-5.2061,-5.207,-5.2119,-5.203,-5.2171,-5.2182,-5.221,-5.2231,-5.2244,-5.2267,-5.2095,-5.2095,-5.2095,-5.2071,-5.2062,-5.214,-5.2139,-5.2173,-5.2182,-5.2209,-5.2223,-5.2202,-5.2237,-5.2252,-5.236,-5.2385,-5.2395,-5.2419,-5.2278,-5.2278,-5.2278,-5.2278,-5.221,-5.2256,-5.2231,-5.2297,-5.2288,-5.2344,-5.2358,-5.2342,-5.2393,-5.2347,-5.2371,-5.2319,-5.2413,-5.2434,-5.2282,-5.2282,-5.2281,-5.2281,-5.228,-5.2303,-5.2323,-5.2335,-5.2386,-5.2428,-5.2426,-5.2477,-5.2467,-5.2458,-5.2483,-5.2498,-5.2497,-5.2492,-5.2492,-5.2492,-5.2492,-5.2493,-5.2493,-5.2493,-5.2392,-5.2404,-5.2448,-5.248,-5.2502,-5.2531,-5.2545,-5.2567,-5.2589,-5.2578,-5.2578,-5.2554,-5.2426,-5.2391,-5.2499,-5.2498,-5.2497,-5.2497,-5.2496,-5.253,-5.2499,-5.2566,-5.2589,-5.2627,-5.2669,-5.2659,-5.2706,-5.2723,-5.2749,-5.2722,-5.263,-5.2615,-5.2605,-5.2576,-5.2725,-5.2725,-5.2725,-5.2725,-5.2605,-5.26,-5.2667,-5.2705,-5.2742,-5.2741,-5.2819,-5.2832,-5.2841,-5.2851,-5.283,-5.2793,-5.2783,-5.2774,-5.276,-5.2733,-5.2918,-5.2918,-5.2919,-5.2689,-5.2687,-5.2753,-5.2763,-5.2794,-5.282,-5.2893,-5.2938,-5.2942,-5.2926,-5.2859,-5.2851,-5.2791,-5.2773,-5.2749,-5.2727,-5.2677,0,0]},{"header":{"parameterUnit":"m.s-1","parameterCategory":1,"la1":30.2992,"la2":30.254,"lo1":-89.0895,"lo2":-89.0443,"dy":0.0025,"dx":0.0025,"nx":19,"ny":19,"refTime":"2026-04-03T21:00:00:Z","depth":0,"parameterNumber":3,"parameterNumberName":"V-component_of_WINDS"},"data":[0,0,0,3.1499,3.1499,3.1492,3.1493,3.1458,3.1457,0,0,0,0,0,0,0,0,0,0,0,3.1487,3.1486,3.1499,3.1499,3.1492,3.1493,3.1458,3.1457,0,0,0,0,0,0,0,0,0,0,0,3.1487,3.1487,3.1486,3.1499,3.1492,3.1493,3.1458,3.1472,0,0,0,0,0,0,0,0,0,0,3.1482,3.1457,3.1487,3.1486,3.1499,3.1492,3.1493,3.1473,3.1471,3.145,0,3.1429,0,3.1443,3.1453,3.1453,0,0,0,3.1508,3.1459,3.1471,3.1486,3.1498,3.1492,3.1498,3.1472,3.147,3.1447,3.1429,3.1429,3.1442,3.1453,3.1453,3.1307,3.1305,0,0,3.1509,3.1477,3.1472,3.1468,3.147,3.1498,3.1498,3.1471,3.1448,3.1429,3.1428,3.1442,3.1452,3.1452,3.1308,3.1306,0,0,0,3.1503,3.1477,3.149,3.1469,3.147,3.1498,3.1497,3.1449,3.1456,3.1428,3.1441,3.1452,3.1451,3.1309,3.1307,3.1222,0,0,0,3.1504,3.1474,3.149,3.147,3.147,3.146,3.1476,3.1458,3.1456,3.1441,3.1452,3.1451,3.131,3.1308,3.1227,3.1186,0,0,0,3.1492,3.1473,3.1468,3.1469,3.1465,3.1461,3.1467,3.1459,3.1464,3.1453,3.1451,3.1311,3.1308,3.1231,3.1193,3.1139,0,0,0,3.147,3.1389,3.1466,3.1381,3.1465,3.141,3.1468,3.1427,3.1408,3.1452,3.131,3.1307,3.1233,3.1198,3.1143,3.1087,3.1061,0,0,3.1351,3.1374,3.1327,3.1395,3.1319,3.1413,3.1323,3.1334,3.1359,3.1322,3.1319,3.1225,3.1194,3.114,3.0926,3.0905,0,0,0,3.1278,3.1244,3.1231,3.1213,3.1221,3.1224,3.1253,3.1257,3.1228,3.1335,3.1192,3.1174,3.1144,3.1118,3.11,3.1076,3.1294,3.1295,3.1295,3.1063,3.1104,3.1029,3.107,3.1051,3.1083,3.1072,3.1082,3.1126,3.1092,3.1081,3.0946,3.0915,3.0902,3.0876,3.1055,3.1055,3.1054,3.1054,3.0892,3.085,3.0915,3.0865,3.0909,3.0867,3.0894,3.0928,3.0894,3.0958,3.0933,3.0998,3.0878,3.0858,3.1048,3.1049,3.105,3.105,3.1051,3.0755,3.0742,3.0751,3.0732,3.0711,3.0755,3.072,3.0761,3.0798,3.0773,3.0766,3.0767,3.0773,3.0767,3.0767,3.0766,3.0766,3.0766,3.0765,3.0609,3.0622,3.059,3.0594,3.0589,3.0587,3.062,3.0616,3.062,3.0652,3.0652,3.0699,3.0859,3.0898,3.0758,3.076,3.076,3.0761,3.0762,3.0419,3.0469,3.0419,3.0414,3.0424,3.0401,3.0455,3.0442,3.0444,3.0426,3.048,3.0592,3.0617,3.0631,3.0664,3.0471,3.0471,3.0471,3.0471,3.0303,3.0321,3.028,3.027,3.0265,3.0309,3.025,3.0275,3.0308,3.0311,3.0346,3.0392,3.0406,3.0423,3.0442,3.0473,3.0236,3.0236,3.0236,3.0188,3.0209,3.0151,3.0188,3.0199,3.0207,3.0153,3.0137,3.0185,3.0227,3.0315,3.0325,3.0401,3.0424,3.0466,3.0495,3.0552,0,0]}]]